This is the latest recevied weather packets stored in our database for station/object KF7SOJ. If no packets are shown the sender has not sent any weather packets the latest 10 day(s).
| Time | Temp. | Humidity | Pressure | Rain* | Wind** | Luminosity | Snow |
|---|---|---|---|---|---|---|---|
| 1777727959 | 13.33° C | 30% | 933.1 hPa | 0 mm | - | 125 W/m² | - |
| 1777727656 | 13.33° C | 30% | 933.3 hPa | 0 mm | - | 108 W/m² | - |
| 1777727353 | 12.78° C | 30% | 933.1 hPa | 0 mm | - | 98 W/m² | - |
| 1777727050 | 12.78° C | 31% | 933 hPa | 0 mm | - | 84 W/m² | - |
| 1777726747 | 12.22° C | 31% | 933.1 hPa | 0 mm | - | 77 W/m² | - |
| 1777726445 | 11.67° C | 32% | 933.2 hPa | 0 mm | - | 65 W/m² | - |
| 1777726141 | 12.22° C | 32% | 932.9 hPa | 0 mm | - | 49 W/m² | - |
| 1777725838 | 11.67° C | 33% | 933 hPa | 0 mm | - | 47 W/m² | - |
| 1777725536 | 11.67° C | 34% | 933.1 hPa | 0 mm | - | 42 W/m² | - |
| 1777725233 | 11.11° C | 34% | 933 hPa | 0 mm | - | 36 W/m² | - |
| 1777724930 | 11.11° C | 34% | 932.6 hPa | 0 mm | - | 30 W/m² | - |
| 1777724626 | 11.11° C | 33% | 932.8 hPa | 0 mm | - | 23 W/m² | - |
| 1777724325 | 10.56° C | 34% | 932.5 hPa | 0 mm | - | 17 W/m² | - |
| 1777724021 | 10.56° C | 34% | 932.7 hPa | 0 mm | - | 11 W/m² | - |
| 1777723719 | 10.56° C | 34% | 932.7 hPa | 0 mm | - | 8 W/m² | - |
| 1777723415 | 11.11° C | 33% | 932.8 hPa | 0 mm | - | 5 W/m² | - |
| 1777723112 | 11.67° C | 32% | 932.6 hPa | 0 mm | - | 3 W/m² | - |
| 1777722809 | 11.67° C | 32% | 932.6 hPa | 0 mm | - | 2 W/m² | - |
| 1777722506 | 11.67° C | 32% | 932.6 hPa | 0 mm | - | 1 W/m² | - |
| 1777722203 | 11.11° C | 33% | 932.7 hPa | 0 mm | - | 0 W/m² | - |
| 1777721900 | 11.11° C | 33% | 932.6 hPa | 0 mm | - | 0 W/m² | - |
| 1777721597 | 11.11° C | 33% | 932.7 hPa | 0 mm | - | 0 W/m² | - |
| 1777721296 | 11.11° C | 33% | 932.6 hPa | 0 mm | - | 0 W/m² | - |
| 1777720992 | 9.44° C | 38% | 932.9 hPa | 0 mm | - | 0 W/m² | - |
| 1777720690 | 8.89° C | 39% | 932.8 hPa | 0 mm | - | 0 W/m² | - |
* Rain latest hour (hover to see other rain measurements)
** Current wind speed in m/s (hover to see current wind gust speed)